Date,TemperatureHighF,TemperatureAvgF,TemperatureLowF,DewpointHighF,DewpointAvgF,DewpointLowF,HumidityHigh,HumidityAvg,HumidityLow,PressureMaxIn,PressureMinIn,WindSpeedMaxMPH,WindSpeedAvgMPH,GustSpeedMaxMPH,PrecipitationSumIn
2013-1-1,46,38,31,44,37,31,100,97,87,30.32,30.19,2,0,2,0.00
2013-1-2,47,36,29,43,34,28,99,94,72,30.21,30.06,0,0,1,0.02
2013-1-3,54,41,29,47,39,29,100,93,70,30.27,30.03,5,1,8,0.04
2013-1-4,50,46,43,48,46,43,100,98,91,30.28,30.12,2,0,4,0.01
2013-1-5,46,43,40,46,43,40,100,99,95,30.17,30.08,2,0,2,0.06
2013-1-6,50,44,40,47,44,40,100,97,86,30.22,30.13,2,0,3,0.03
2013-1-7,52,48,44,52,48,44,100,100,98,30.25,30.13,1,0,4,0.06
2013-1-8,58,49,44,54,48,44,100,96,81,30.25,29.98,6,1,12,0.00
2013-1-9,51,42,35,47,41,35,100,95,78,30.04,29.84,11,2,11,1.04
2013-1-10,42,37,34,41,36,33,100,98,87,30.21,30.02,5,1,12,0.54
2013-1-11,43,36,32,42,36,32,100,98,90,30.29,30.16,2,0,3,0.16
2013-1-12,41,34,28,37,33,27,100,96,80,30.35,30.25,0,0,2,0.00
2013-1-13,38,29,24,34,28,23,98,95,83,30.42,30.35,2,0,3,0.01
2013-1-14,42,31,24,35,29,23,99,92,73,30.51,30.42,1,0,2,0.01
2013-1-15,47,34,26,39,32,25,99,92,74,30.55,30.48,2,0,4,0.00
2013-1-16,51,37,27,42,34,26,99,91,70,30.50,30.33,2,0,3,0.01
2013-1-17,59,41,30,49,38,30,100,92,61,30.33,30.16,2,0,3,0.01
2013-1-18,50,37,28,46,36,27,99,95,83,30.23,30.16,1,0,3,0.01
2013-1-19,49,35,26,44,34,26,99,95,82,30.27,30.18,2,0,3,0.01
2013-1-20,50,36,26,44,35,25,99,94,76,30.26,30.14,2,0,3,0.00
2013-1-21,54,38,28,42,34,27,99,87,44,30.18,30.06,1,0,2,0.02
2013-1-22,36,35,33,35,34,33,98,97,97,30.06,30.04,0,0,0,0.00
2013-1-23,45,44,42,45,44,42,100,99,99,30.15,30.05,1,0,2,0.65
2013-1-24,55,46,38,53,45,38,100,97,90,30.15,30.07,2,0,5,0.05
2013-1-25,52,47,37,52,46,36,100,99,93,30.12,30.00,2,0,3,0.24
2013-1-26,48,42,37,47,41,37,100,98,83,30.14,30.00,5,0,11,0.50
2013-1-27,44,40,37,44,40,36,100,99,96,30.22,30.12,4,0,6,0.59
2013-1-28,46,43,40,46,43,40,100,98,94,30.35,30.16,3,1,9,0.27
2013-1-29,47,44,41,47,44,41,99,98,94,30.52,30.35,3,0,9,0.23
2013-1-30,52,44,39,49,43,39,100,97,86,30.55,30.43,1,0,3,0.00
2013-1-31,56,43,36,49,42,35,100,94,76,30.44,30.30,3,0,6,0.01
2013-2-1,60,43,31,50,41,30,100,92,66,30.30,30.12,1,0,2,0.00
2013-2-2,55,43,33,49,41,33,100,95,79,30.32,30.19,5,0,10,0.01
2013-2-3,51,47,42,45,44,41,99,91,77,30.33,30.20,2,0,3,0.00
2013-2-4,53,44,38,48,42,38,100,94,78,30.21,29.99,5,0,6,0.00
2013-2-5,53,47,42,48,44,41,99,90,74,30.12,29.94,6,1,8,0.15
2013-2-6,52,44,37,47,42,37,100,92,72,30.13,29.90,8,1,20,0.38
2013-2-7,40,37,34,40,37,34,99,98,97,30.10,29.98,7,0,7,0.70
2013-2-8,48,39,33,43,37,33,100,94,76,30.27,30.10,5,1,9,0.00
2013-2-9,51,40,32,44,37,31,100,92,68,30.30,30.24,3,0,8,0.00
2013-2-10,51,43,38,44,40,37,99,91,75,30.30,30.25,4,1,7,0.00
2013-2-11,54,45,41,43,40,38,96,84,65,30.41,30.28,4,1,8,0.00
2013-2-12,53,47,42,51,46,42,99,96,86,30.51,30.42,4,0,7,0.04
2013-2-13,55,48,41,49,46,41,99,93,78,30.50,30.42,3,0,7,0.00
2013-2-14,60,49,42,51,46,41,99,90,68,30.50,30.35,6,1,7,0.00
2013-2-15,67,48,34,53,42,34,100,85,47,30.35,30.17,3,0,5,0.00
2013-2-16,51,45,41,47,43,40,98,93,79,30.31,30.25,4,0,8,0.07
2013-2-17,51,41,33,42,38,32,99,89,66,30.29,30.06,6,1,12,0.01
2013-2-18,48,39,32,42,36,31,99,91,70,30.06,29.73,5,0,7,0.04
2013-2-19,48,40,35,42,38,34,99,93,78,30.02,29.63,4,1,9,0.59
2013-2-20,50,41,36,44,39,36,99,94,71,30.15,30.02,6,1,9,0.16
2013-2-21,48,42,37,45,40,37,100,94,78,30.29,30.16,3,0,4,0.01
2013-2-22,51,45,40,45,43,39,97,92,77,30.25,30.03,6,1,10,0.34
2013-2-23,46,40,34,43,38,34,99,94,83,30.45,30.20,4,1,6,0.26
2013-2-24,55,41,31,41,36,30,99,85,58,30.45,30.17,5,1,7,0.00
2013-2-25,50,43,34,45,40,33,98,89,66,30.41,30.16,7,1,11,0.28
2013-2-26,52,39,30,42,35,29,99,89,61,30.41,30.24,5,0,8,0.00
2013-2-27,58,47,38,50,44,37,99,90,62,30.30,30.22,5,0,8,0.09
2013-2-28,58,52,49,54,50,48,100,96,82,30.48,30.23,4,0,7,0.04
2013-3-1,58,51,47,53,49,46,100,94,80,30.48,30.30,4,0,5,0.00
2013-3-2,54,49,45,51,48,44,99,95,82,30.31,30.20,4,1,7,0.03
2013-3-3,55,44,36,44,38,33,96,81,44,30.26,30.14,7,2,11,0.00
2013-3-4,59,41,28,48,35,27,99,82,38,30.13,29.87,4,0,7,0.00
2013-3-5,45,42,39,44,41,37,99,97,89,29.87,29.58,6,0,8,1.29
2013-3-6,49,42,39,45,41,39,99,97,85,29.96,29.55,6,-11,8,0.45
2013-3-7,56,42,32,44,38,32,100,89,59,30.00,29.95,6,1,15,0.03
2013-3-8,55,41,32,45,38,32,99,91,65,30.21,29.99,6,1,13,0.01
2013-3-9,62,47,38,47,41,37,98,83,52,30.47,30.21,6,1,9,0.00
2013-3-10,62,45,32,47,40,32,99,84,39,30.47,30.39,5,1,7,0.00
2013-3-11,63,50,44,54,47,44,99,91,67,30.41,30.23,5,1,9,0.01
2013-3-12,59,50,47,52,48,46,99,92,76,30.23,30.17,6,1,10,0.01
2013-3-13,63,50,43,54,47,42,99,90,68,30.23,30.11,4,1,8,0.00
2013-3-14,63,51,44,49,46,43,98,85,54,30.21,30.07,7,1,10,0.00
2013-3-15,62,52,48,54,49,47,96,89,75,30.22,30.18,5,1,12,0.00
2013-3-16,51,48,43,49,46,42,97,94,85,30.24,30.13,5,1,8,0.23
2013-3-17,52,43,36,43,39,36,99,86,56,30.33,30.23,5,1,9,0.06
2013-3-18,60,44,30,45,38,30,99,84,49,30.27,30.05,5,1,12,0.00
2013-3-19,61,49,42,50,46,42,99,89,59,30.05,29.69,6,1,11,0.28
2013-3-20,54,48,40,51,45,38,96,91,75,30.24,29.66,11,4,15,0.45
2013-3-21,50,41,37,44,39,35,99,90,64,30.38,30.24,6,1,9,0.11
2013-3-22,50,40,34,42,36,32,99,86,54,30.38,30.34,6,1,11,0.08
2013-3-23,53,39,29,41,34,28,98,84,51,30.37,30.20,6,1,8,0.01
2013-3-24,56,43,33,44,38,32,98,83,51,30.22,30.05,5,1,7,0.00
2013-3-25,53,44,34,46,41,33,98,89,71,30.05,29.95,5,1,8,0.00
2013-3-26,59,49,42,47,44,41,99,83,60,30.00,29.91,5,1,6,0.00
2013-3-27,63,51,44,53,47,42,98,87,59,29.96,29.88,5,0,10,0.03
2013-3-28,58,51,46,53,48,45,98,91,74,30.11,29.96,6,0,6,0.03
2013-3-29,71,56,47,57,51,46,99,85,57,30.14,30.06,4,1,6,0.02
2013-3-30,78,56,42,58,49,42,100,82,42,30.09,29.93,9,1,13,0.01
2013-3-31,60,54,51,55,52,50,98,94,81,30.03,29.95,6,0,10,0.02
2013-4-1,57,52,50,54,51,48,99,95,87,30.18,30.02,3,0,7,0.02
2013-4-2,65,52,47,56,49,46,98,91,70,30.21,30.12,6,1,10,0.00
2013-4-3,64,52,46,56,49,45,99,92,73,30.15,29.88,5,0,9,0.04
2013-4-4,59,53,50,57,52,50,99,97,87,29.92,29.70,6,1,12,0.92
2013-4-5,58,53,50,53,50,49,99,91,76,30.00,29.88,7,2,13,0.12
2013-4-6,58,52,48,51,49,47,98,89,71,30.04,29.76,7,2,16,0.20
2013-4-7,54,47,40,51,44,39,98,92,68,30.03,29.77,10,3,17,0.87
2013-4-8,54,44,38,47,41,37,99,90,68,30.28,30.03,5,1,8,0.09
2013-4-9,66,49,38,50,43,37,99,81,36,30.31,30.25,6,1,11,0.00
2013-4-10,54,48,41,52,46,40,99,95,87,30.34,30.25,5,1,10,0.05
2013-4-11,57,46,37,47,42,37,99,86,63,30.35,30.13,7,2,12,0.00
2013-4-12,59,47,39,50,43,38,99,89,67,30.15,29.97,7,1,12,0.03
2013-4-13,53,45,36,44,40,34,97,83,59,30.15,30.03,5,2,11,0.04
2013-4-14,50,40,34,46,38,33,98,92,77,30.15,29.97,5,1,8,0.08
2013-4-15,50,46,39,43,40,37,94,82,65,30.20,30.03,7,3,13,0.21
2013-4-16,56,45,37,46,41,36,99,87,62,30.40,30.20,7,2,12,0.03
2013-4-17,59,48,41,48,43,40,97,82,57,30.48,30.40,6,2,16,0.00
2013-4-18,63,51,42,50,45,42,98,81,58,30.47,30.36,5,1,10,0.00
2013-4-19,56,50,46,53,49,45,99,95,89,30.37,30.29,5,1,11,0.09
2013-4-20,61,51,45,53,48,42,99,89,70,30.35,30.26,7,2,10,0.01
2013-4-21,66,52,45,53,47,42,92,82,58,30.30,30.21,6,2,11,0.00
2013-4-22,70,56,45,51,46,41,97,72,35,30.25,30.16,7,3,11,0.00
2013-4-23,71,52,36,45,40,34,97,67,26,30.22,30.08,9,2,16,0.00
2013-4-24,81,56,36,50,41,32,98,64,17,30.14,29.89,5,1,9,0.00
2013-4-25,72,54,39,52,44,38,98,73,37,30.14,29.95,5,1,9,0.00
2013-4-26,75,52,43,59,47,43,98,85,49,30.28,30.14,8,1,10,0.00
2013-4-27,66,52,44,54,46,43,99,84,49,30.30,30.24,5,1,10,0.00
2013-4-28,67,53,46,56,48,44,95,83,60,30.29,30.19,5,1,10,0.00
2013-4-29,59,50,42,51,45,38,97,84,54,30.21,30.15,8,2,11,0.00
2013-4-30,58,46,33,44,38,32,97,74,47,30.36,30.21,8,2,12,0.00
2013-5-1,70,50,32,47,40,31,97,71,29,30.39,30.29,6,1,16,0.00
2013-5-2,78,56,38,51,43,37,98,69,33,30.31,30.19,8,2,13,0.00
2013-5-3,74,54,38,53,46,38,98,77,44,30.26,30.04,8,2,12,0.00
2013-5-4,84,63,39,57,44,35,98,59,26,30.05,29.68,6,2,11,0.00
2013-5-5,85,66,51,52,45,35,95,50,23,29.82,29.58,10,2,16,0.04
2013-5-6,71,57,47,58,50,46,99,80,47,29.95,29.83,6,1,11,0.00
2013-5-7,63,55,50,56,50,48,95,86,73,30.06,29.92,5,2,11,0.00
2013-5-8,66,55,50,56,50,48,97,86,66,30.16,30.05,7,1,9,0.01
2013-5-9,71,55,49,59,51,47,95,85,64,30.19,30.09,5,1,11,0.00
2013-5-10,66,53,48,58,50,47,97,88,69,30.23,30.17,7,1,14,0.00
2013-5-11,78,60,48,62,53,47,97,81,47,30.24,30.05,7,1,13,0.00
2013-5-12,70,60,54,61,56,53,99,87,66,30.14,30.06,8,1,12,0.00
2013-5-13,66,56,48,58,53,46,97,91,73,30.21,30.06,11,1,13,0.00
2013-5-14,67,53,45,53,47,43,99,81,54,30.20,30.11,6,1,11,0.00
2013-5-15,63,53,44,53,48,43,98,84,59,30.13,30.00,4,1,7,0.03
2013-5-16,58,54,50,53,51,49,98,90,76,30.01,29.96,7,1,11,0.07
2013-5-17,60,53,48,55,50,47,99,89,72,30.12,30.00,5,0,7,0.09
2013-5-18,62,53,46,54,50,46,98,89,72,30.32,30.10,8,1,12,0.02
2013-5-19,62,54,47,53,50,45,99,87,69,30.40,30.29,7,2,14,0.11
2013-5-20,70,53,43,58,48,42,99,84,57,30.31,29.99,8,1,13,0.00
2013-5-21,54,48,41,52,45,39,98,91,70,30.10,29.85,8,1,11,0.61
2013-5-22,49,45,40,47,44,39,98,96,92,30.09,30.04,4,1,7,0.59
2013-5-23,60,50,42,51,46,42,99,88,61,30.07,30.02,7,1,13,0.16
2013-5-24,56,51,45,49,46,44,99,86,68,30.11,30.06,4,1,9,0.05
2013-5-25,63,53,43,54,48,42,99,87,62,30.08,29.95,5,1,12,0.10
2013-5-26,61,55,51,53,51,49,98,88,70,30.07,29.96,8,2,13,0.05
2013-5-27,61,54,51,57,53,50,99,94,81,29.98,29.79,7,1,11,0.42
2013-5-28,63,55,51,54,52,49,98,88,66,29.96,29.75,7,1,13,0.10
2013-5-29,59,54,49,54,51,48,97,91,81,30.09,29.73,8,3,11,0.13
2013-5-30,64,54,47,51,48,44,99,83,52,30.24,30.09,5,1,8,0.00
2013-5-31,67,54,42,56,48,42,99,82,61,30.29,30.21,7,2,15,0.00
2013-6-1,72,57,45,59,50,44,98,80,46,30.24,30.06,6,1,8,0.00
2013-6-2,67,56,52,60,53,49,99,90,73,30.06,30.01,10,3,15,0.07
2013-6-3,69,57,49,58,52,48,96,84,64,30.05,29.97,9,3,14,0.00
2013-6-4,74,58,46,61,52,45,99,82,51,30.02,29.95,6,2,12,0.00
2013-6-5,74,59,52,62,54,51,99,87,61,30.07,30.00,7,2,12,0.00
2013-6-6,68,56,51,59,53,49,98,88,67,30.08,30.00,6,2,11,0.01
2013-6-7,78,60,51,58,52,39,97,78,28,30.11,30.07,8,2,13,0.00
2013-6-8,76,60,51,64,53,48,99,79,51,30.10,30.01,9,2,14,0.00
2013-6-9,67,56,46,55,49,45,97,80,58,30.03,29.97,9,3,17,0.00
2013-6-10,64,54,42,51,47,41,97,80,57,30.03,29.93,9,3,19,0.00
2013-6-11,65,56,48,52,48,46,96,78,50,30.16,30.04,6,2,12,0.00
2013-6-12,61,53,45,53,48,44,98,85,67,30.22,30.14,4,1,7,0.00
2013-6-13,63,53,47,54,50,46,98,87,69,30.30,30.21,6,1,15,0.02
2013-6-14,71,56,45,56,50,44,99,82,55,30.28,29.96,7,2,12,0.00
2013-6-15,67,55,48,59,52,47,98,89,72,30.05,29.93,7,1,12,0.00
2013-6-16,68,56,47,58,51,46,98,86,67,30.13,30.05,8,1,11,0.00
2013-6-17,72,57,45,57,52,45,99,84,53,30.12,29.99,8,1,13,0.00
2013-6-18,65,55,44,53,50,43,98,85,60,30.03,29.98,4,1,7,0.08
2013-6-19,63,56,50,55,51,49,99,84,65,30.13,29.97,7,2,8,0.16
2013-6-20,68,58,51,56,52,50,97,82,61,30.13,30.06,5,1,10,0.00
2013-6-21,73,58,47,57,52,46,99,81,55,30.14,30.09,6,2,12,0.00
2013-6-22,75,60,47,60,53,46,99,81,47,30.09,29.86,6,1,9,0.00
2013-6-23,70,61,54,65,59,53,98,92,70,29.86,29.64,6,1,8,0.16
2013-6-24,64,57,53,58,55,52,99,92,69,29.73,29.66,2,0,8,0.12
2013-6-25,66,61,56,60,57,55,98,87,70,29.84,29.67,6,1,9,0.20
2013-6-26,73,64,58,63,60,57,99,86,60,29.99,29.83,4,0,7,0.08
2013-6-27,76,65,56,66,61,56,99,86,69,30.13,29.98,6,1,15,0.00
2013-6-28,81,67,54,67,59,54,99,78,47,30.13,30.04,8,2,12,0.00
2013-6-29,90,69,54,67,59,53,98,75,38,30.10,29.95,6,1,11,0.00
2013-6-30,79,66,57,67,60,56,99,83,56,29.97,29.90,4,1,8,0.00
2013-7-1,77,65,57,66,60,56,98,86,65,30.03,29.93,5,2,8,0.00
2013-7-2,75,64,58,66,60,56,98,87,70,30.07,30.01,6,2,11,0.00
2013-7-3,76,64,55,62,57,52,95,80,53,30.11,30.04,6,2,12,0.00
2013-7-4,71,59,48,58,53,47,99,82,60,30.11,30.02,8,3,17,0.00
2013-7-5,72,61,52,58,54,51,95,77,58,30.04,29.92,9,4,15,0.00
2013-7-6,72,59,47,59,53,46,97,83,62,29.95,29.86,8,3,14,0.00
2013-7-7,71,61,56,60,55,53,91,83,67,29.98,29.90,9,3,17,0.00
2013-7-8,74,62,54,60,55,52,94,80,60,30.02,29.97,6,2,10,0.00
2013-7-9,75,60,53,64,56,52,98,86,60,30.07,30.01,5,2,12,0.00
2013-7-10,69,58,52,59,53,49,96,83,64,30.07,29.97,8,3,13,0.00
2013-7-11,71,57,46,56,50,45,97,79,56,30.03,29.96,7,2,17,0.00
2013-7-12,70,58,49,54,50,48,97,78,49,30.07,29.99,7,2,14,0.00
2013-7-13,73,58,46,58,50,45,98,79,51,30.08,29.99,8,2,14,0.00
2013-7-14,73,58,49,59,52,48,98,80,53,30.05,29.96,6,2,11,0.00
2013-7-15,72,58,49,58,52,48,97,82,57,29.99,29.80,5,1,10,0.00
2013-7-16,65,57,50,59,54,49,97,88,79,30.03,29.80,4,1,5,0.00
2013-7-17,72,60,52,58,54,49,94,81,61,30.16,30.03,4,1,9,0.00
2013-7-18,73,58,45,60,52,44,98,82,61,30.16,30.09,7,2,13,0.00
2013-7-19,70,58,52,59,54,50,95,84,65,30.13,30.05,8,2,13,0.00
2013-7-20,71,59,54,60,54,52,94,85,65,30.08,29.94,6,2,11,0.00
2013-7-21,71,59,52,61,54,52,98,85,61,29.96,29.87,6,2,11,0.00
2013-7-22,76,61,52,64,55,50,98,84,59,29.98,29.92,5,1,9,0.00
2013-7-23,77,58,49,63,53,49,98,85,57,30.05,29.94,5,1,8,0.00
2013-7-24,73,57,49,60,52,48,97,84,60,30.04,29.97,4,1,9,0.00
2013-7-25,76,59,48,61,52,47,98,80,51,30.03,29.97,6,1,10,0.00
2013-7-26,74,56,48,57,50,47,97,84,54,30.14,30.03,7,1,12,0.00
2013-7-27,72,59,48,57,52,47,97,80,56,30.15,30.02,9,3,16,0.00
2013-7-28,70,59,48,56,52,47,98,80,59,30.04,29.95,8,2,13,0.00
2013-7-29,71,58,48,58,52,47,98,83,61,30.07,29.94,6,2,10,0.00
2013-7-30,68,59,54,57,54,52,94,83,65,30.13,30.06,5,1,8,0.00
2013-7-31,62,58,56,58,56,54,95,90,81,30.13,30.08,3,0,5,0.00
2013-8-1,68,60,55,59,56,54,98,89,71,30.13,30.07,4,1,6,0.02
2013-8-2,74,62,54,59,56,52,96,80,56,30.12,30.04,7,2,12,0.00
2013-8-3,77,60,52,62,55,50,98,85,60,30.06,29.96,6,2,13,0.00
2013-8-4,72,59,54,62,56,53,98,88,66,30.00,29.94,5,1,10,0.00
2013-8-5,75,59,51,62,55,49,98,86,63,30.00,29.93,4,1,7,0.00
2013-8-6,71,58,51,60,53,50,98,86,63,30.02,29.95,6,1,10,0.00
2013-8-7,61,56,53,56,53,51,95,89,81,30.08,30.00,3,0,6,0.00
2013-8-8,75,61,53,62,56,52,96,84,60,30.08,29.94,7,2,10,0.00
2013-8-9,77,60,54,62,56,53,98,89,55,29.98,29.86,6,1,11,0.93
2013-8-10,63,59,56,60,58,56,99,95,87,30.05,29.95,2,0,5,0.03
2013-8-11,70,60,54,61,56,53,98,88,68,30.05,30.00,5,1,7,0.01
2013-8-12,74,59,51,59,54,50,99,84,58,30.07,30.01,5,1,10,0.01
2013-8-13,81,60,46,62,53,45,99,80,51,30.07,29.95,5,1,10,0.00
2013-8-14,82,64,49,64,56,49,99,81,38,29.99,29.90,7,1,8,0.00
2013-8-15,76,67,62,67,63,61,95,88,73,29.97,29.91,5,1,8,0.00
2013-8-16,78,66,58,65,61,55,98,84,57,30.05,29.94,5,1,11,0.00
2013-8-17,75,62,52,64,58,51,99,87,67,30.08,30.03,6,2,9,0.01
2013-8-18,80,63,53,64,58,52,99,83,55,30.09,30.01,7,2,13,0.01
2013-8-19,78,64,56,65,58,54,99,85,51,30.08,30.00,7,2,15,0.00
2013-8-20,77,62,52,61,54,50,98,77,46,30.05,29.90,8,2,13,0.00
2013-8-21,80,61,48,61,53,47,99,78,47,29.94,29.84,5,1,9,0.01
2013-8-22,64,59,55,58,56,53,96,89,81,29.94,29.89,4,0,8,0.00
2013-8-23,68,60,55,60,57,54,98,89,73,29.95,29.89,3,0,6,0.01
2013-8-24,73,61,52,61,55,51,99,84,61,29.90,29.84,6,1,9,0.00
2013-8-25,65,57,52,61,55,52,99,94,80,29.93,29.87,4,0,7,0.06
2013-8-26,79,64,51,59,54,47,99,75,34,29.93,29.89,6,1,10,0.01
2013-8-27,78,66,57,62,59,55,94,78,56,29.93,29.80,6,1,8,0.01
2013-8-28,80,66,58,65,61,57,99,84,58,29.88,29.80,5,1,7,0.00
2013-8-29,77,67,60,68,62,59,99,87,64,30.06,29.83,6,1,12,0.19
2013-8-30,79,68,57,66,62,57,99,86,58,30.09,30.01,5,1,8,0.01
2013-8-31,72,60,54,63,57,54,100,91,70,30.01,29.89,7,1,10,0.00
2013-9-1,83,66,54,63,58,54,100,78,42,29.92,29.77,7,1,10,0.01
2013-9-2,79,68,57,62,58,52,98,75,45,29.92,29.84,5,1,10,0.00
2013-9-3,76,63,52,60,56,52,100,81,56,29.99,29.91,6,1,9,0.00
2013-9-4,74,62,54,62,57,53,100,86,60,30.04,29.98,4,1,12,0.00
2013-9-5,65,60,58,62,59,57,99,96,88,30.12,29.98,2,0,6,0.09
2013-9-6,75,63,57,62,58,56,100,86,58,30.16,30.05,6,1,8,0.00
2013-9-7,77,61,51,64,57,50,100,88,62,30.05,29.90,5,1,9,0.00
2013-9-8,79,64,56,66,60,56,100,88,64,30.00,29.89,6,1,12,0.01
2013-9-9,80,63,56,66,59,55,100,87,61,29.96,29.83,6,1,12,0.01
2013-9-10,84,64,53,69,58,52,100,83,55,29.85,29.69,6,1,8,0.00
2013-9-11,75,61,54,64,58,54,100,89,66,29.97,29.83,4,1,8,0.00
2013-9-12,66,62,59,61,59,58,98,90,81,29.97,29.94,4,0,6,0.00
2013-9-13,69,61,57,62,58,57,99,91,76,29.97,29.83,5,1,7,0.00
2013-9-14,63,60,58,60,58,57,99,95,88,29.84,29.76,4,0,6,0.02
2013-9-15,67,61,57,60,57,55,100,89,73,29.90,29.75,7,1,12,0.00
2013-9-16,73,62,57,60,56,54,94,82,55,29.96,29.86,5,1,7,0.00
2013-9-17,66,59,52,59,56,51,99,90,69,30.04,29.84,7,1,9,0.23
2013-9-18,73,58,50,59,54,50,100,87,51,30.07,29.94,4,1,10,0.01
2013-9-19,73,56,44,58,51,44,100,84,55,29.94,29.79,5,1,9,0.00
2013-9-20,63,55,47,62,54,47,100,97,81,29.79,29.66,6,0,8,0.42
2013-9-21,65,58,51,60,55,51,100,92,72,29.84,29.66,8,1,15,1.64
2013-9-22,65,57,51,58,54,50,100,91,73,29.91,29.74,6,1,16,0.05
2013-9-23,68,59,54,58,55,53,99,89,63,30.01,29.91,5,1,11,0.02
2013-9-24,64,56,48,56,53,48,99,90,64,29.98,29.91,6,1,10,1.59
2013-9-25,57,49,45,54,48,44,100,97,82,30.06,29.90,5,0,6,0.40
2013-9-26,64,50,42,55,48,41,100,91,64,30.18,30.05,6,1,11,0.01
2013-9-27,63,52,42,57,51,41,100,95,77,30.19,30.01,4,0,6,0.08
2013-9-28,65,59,52,60,57,52,100,94,78,30.00,29.63,11,3,18,1.86
2013-9-29,61,57,53,61,56,52,100,97,86,29.78,29.57,12,4,23,3.24
2013-9-30,61,54,48,58,52,48,100,92,70,30.04,29.74,6,1,8,0.19
2013-10-1,62,52,44,56,50,43,100,94,70,30.18,30.02,3,0,7,0.28
2013-10-2,60,49,41,53,46,40,100,91,62,30.20,30.09,5,1,8,0.16
2013-10-3,62,50,45,54,47,44,100,91,63,30.34,30.20,3,1,5,0.03
2013-10-4,72,51,36,53,45,36,100,84,32,30.34,30.23,3,0,6,0.00
2013-10-5,76,54,38,58,46,38,100,78,40,30.24,30.09,2,0,4,0.01
2013-10-6,77,55,41,57,45,32,100,76,20,30.09,29.98,7,1,8,0.00
2013-10-7,62,53,47,57,50,46,100,92,66,30.17,30.03,4,0,7,0.15
2013-10-8,55,49,45,54,49,45,100,98,92,30.18,30.00,2,0,4,0.14
2013-10-9,60,49,43,52,46,43,100,92,64,30.01,29.94,3,1,6,0.01
2013-10-10,63,50,41,52,47,40,100,89,56,30.07,29.94,5,1,10,0.01
2013-10-11,59,52,47,52,48,45,95,85,67,30.10,30.07,5,1,6,0.00
2013-10-12,57,49,43,54,48,43,99,96,83,30.11,30.04,3,0,5,0.12
2013-10-13,61,49,43,54,47,42,100,93,70,30.22,30.11,4,1,10,0.02
2013-10-14,67,49,37,54,45,36,100,88,54,30.25,30.15,3,0,7,0.00
2013-10-15,70,50,36,54,45,36,100,85,46,30.19,30.04,3,0,5,0.01
2013-10-16,69,50,37,56,46,36,100,89,59,30.12,30.03,2,0,5,0.01
2013-10-17,66,52,46,58,50,46,100,94,72,30.14,30.05,2,0,4,0.00
2013-10-18,72,53,44,61,50,44,100,91,62,30.07,29.98,2,0,3,0.02
2013-10-19,68,51,42,58,49,42,100,93,67,30.10,30.03,3,0,4,0.00
2013-10-20,66,51,46,60,50,46,100,96,76,30.10,29.99,2,0,3,0.02
2013-10-21,63,50,45,59,49,45,100,97,84,30.01,29.92,2,0,3,0.01
2013-10-22,53,50,48,53,49,48,100,99,96,30.01,29.97,2,0,5,0.01
2013-10-23,53,49,47,51,49,46,100,99,95,30.00,29.95,2,0,5,0.01
2013-10-24,53,50,47,52,49,47,100,99,96,30.10,29.97,1,0,2,0.01
2013-10-25,53,51,49,51,50,49,100,98,93,30.19,30.10,1,0,3,0.02
2013-10-26,62,52,47,56,50,47,100,95,79,30.19,30.13,3,1,7,0.01
2013-10-27,54,51,48,52,49,47,98,94,86,30.15,29.81,8,1,14,0.01
2013-10-28,59,49,41,50,46,40,98,90,67,29.83,29.71,2,0,5,0.00
2013-10-29,58,43,34,50,40,34,100,91,69,30.05,29.83,3,0,5,0.01
2013-10-30,58,43,32,50,39,32,100,88,56,30.19,30.05,3,0,4,0.01
2013-10-31,63,52,43,57,50,42,98,92,69,30.22,30.17,2,0,4,0.00
2013-11-1,67,55,50,60,53,49,100,95,73,30.19,29.93,3,0,6,0.00
2013-11-2,56,50,43,52,48,43,100,93,73,30.18,29.87,6,1,11,0.36
2013-11-3,52,45,40,49,44,39,100,95,79,30.23,30.16,2,0,4,0.11
2013-11-4,52,46,40,50,45,40,100,97,90,30.20,30.14,2,0,3,0.07
2013-11-5,59,53,49,58,53,49,100,99,92,30.24,30.12,1,0,4,0.33
2013-11-6,60,55,53,59,55,53,100,99,95,30.26,30.10,2,0,4,0.01
2013-11-7,56,51,45,55,51,45,100,99,97,30.17,30.01,6,1,13,0.78
2013-11-8,55,45,38,51,45,38,100,98,85,30.20,30.05,2,0,3,0.00
2013-11-9,58,46,36,52,44,36,100,93,68,30.06,29.96,1,0,2,0.01
2013-11-10,60,48,40,54,47,40,100,96,78,30.04,29.97,3,0,3,0.00
2013-11-11,61,52,45,57,51,45,100,96,84,30.05,29.94,3,0,4,0.00
2013-11-12,61,55,52,59,54,52,100,98,89,30.39,30.01,2,0,4,0.12
2013-11-13,60,51,42,55,50,41,100,96,83,30.40,30.23,4,1,5,0.01
2013-11-14,51,44,39,49,44,39,100,99,90,30.25,30.08,2,0,2,0.04
2013-11-15,51,47,44,47,45,44,100,94,83,30.09,29.77,2,0,6,0.03
2013-11-16,53,48,43,52,47,43,100,96,79,29.93,29.72,4,0,7,0.38
2013-11-17,57,48,42,50,45,41,100,93,71,30.05,29.92,3,0,7,0.02
2013-11-18,56,48,42,52,47,42,100,98,81,30.01,29.77,3,0,7,0.53
2013-11-19,57,51,41,56,50,40,100,99,95,29.94,29.77,6,2,9,1.05
2013-11-20,46,40,33,42,37,32,98,92,78,30.23,29.94,4,1,6,0.00
2013-11-21,49,35,26,35,30,26,99,84,50,30.42,30.23,1,0,3,0.00
2013-11-22,57,38,26,40,31,25,99,78,37,30.41,30.19,1,0,2,0.01
2013-11-23,65,45,31,42,34,29,95,69,27,30.19,29.98,1,0,4,0.00
2013-11-24,57,41,31,42,37,30,99,85,53,30.22,30.03,1,0,3,0.01
2013-11-25,54,39,30,44,37,29,99,91,58,30.30,30.22,1,0,2,0.00
2013-11-26,52,41,32,48,39,32,100,95,83,30.23,29.99,0,0,1,0.00
2013-11-27,54,42,33,48,40,33,100,94,76,30.00,29.85,1,0,2,0.00
2013-11-28,57,44,34,50,42,34,100,93,73,30.15,29.92,2,0,3,0.00
2013-11-29,52,41,31,47,40,31,100,95,81,30.32,30.15,2,0,5,0.01
2013-11-30,49,44,40,48,44,39,100,99,94,30.38,30.30,2,0,3,0.01
2013-12-1,57,51,46,56,50,46,100,98,92,30.35,30.15,6,1,11,0.06
2013-12-2,53,45,35,53,45,35,100,98,91,30.15,30.00,6,2,9,1.10
2013-12-3,42,36,31,41,36,30,100,99,95,30.16,30.06,2,0,3,0.14
2013-12-4,36,29,24,31,27,24,99,93,75,30.26,30.16,2,0,3,0.01
2013-12-5,36,27,19,31,25,18,98,92,75,30.24,30.09,1,0,2,0.01
2013-12-6,42,35,31,42,34,29,100,97,92,30.09,29.81,5,1,10,0.43
2013-12-7,32,28,22,31,24,20,97,88,67,30.33,29.98,3,1,7,0.00
2013-12-8,35,26,17,26,21,16,98,83,60,30.54,30.32,2,0,6,0.01
2013-12-9,37,28,19,28,24,18,97,85,64,30.54,30.45,2,0,4,0.00
2013-12-10,42,30,22,36,28,21,98,92,75,30.48,30.30,2,0,3,0.00
2013-12-11,49,35,27,39,32,26,99,91,68,30.30,30.16,1,0,2,0.01
2013-12-12,43,35,27,42,35,27,100,98,88,30.23,30.12,1,0,3,0.39
2013-12-13,51,44,40,49,44,40,100,99,93,30.37,30.23,2,0,3,0.00
2013-12-14,46,41,36,46,41,36,100,100,99,30.43,30.36,3,0,4,0.01
2013-12-15,48,41,36,47,40,36,100,99,92,30.44,30.36,2,0,3,0.01
2013-12-16,49,40,32,47,39,32,100,99,91,30.38,30.13,2,0,3,0.01
2013-12-17,48,39,31,45,38,31,100,98,88,30.20,30.13,2,0,3,0.01
2013-12-18,45,41,36,45,40,36,100,98,84,30.15,30.03,6,1,12,0.02
2013-12-19,42,34,28,36,32,27,99,92,75,30.25,30.11,3,0,7,0.00
2013-12-20,47,38,29,47,37,29,100,95,76,30.21,30.01,2,0,3,0.31
2013-12-21,51,48,45,51,48,45,100,100,97,30.26,30.06,3,0,5,0.10
2013-12-22,55,48,44,53,47,44,100,99,90,30.36,30.25,2,0,3,0.00
2013-12-23,50,47,43,50,47,43,100,100,100,30.47,30.34,1,0,3,0.04
2013-12-24,50,43,35,49,43,34,100,99,96,30.50,30.34,2,0,4,0.02
2013-12-25,48,38,31,46,38,31,100,98,92,30.38,30.26,2,0,3,0.01
2013-12-26,51,39,31,47,38,31,100,97,86,30.29,30.15,1,0,2,0.01
2013-12-27,49,39,32,47,38,32,100,99,92,30.32,30.14,4,0,8,0.00
2013-12-28,45,39,32,44,39,30,100,98,91,30.41,30.32,1,0,3,0.01
2013-12-29,49,36,28,44,35,27,100,94,79,30.35,30.16,1,0,3,0.01
2013-12-30,47,38,33,45,38,32,100,98,91,30.22,30.14,1,0,2,0.00
2013-12-31,51,40,34,46,39,34,100,97,84,30.29,30.22,1,0,3,0.00
2014-1-1,51,39,30,48,38,30,100,97,84,30.27,30.17,1,0,2,0.01
2014-1-2,53,41,34,49,40,34,100,98,87,30.19,30.10,2,0,3,0.00